Zurück zum Katalog

STARLINK-31763

AktivKommunikationVLEO
NORAD 59623·PAYLOAD·🇺🇸 United States

Gestartet Apr 28, 2024 von Cape Canaveral Space Force Station

Loading…

Nächste Überflüge (nächste 24 Stunden)

TLE

AktuellSource: CelesTrak SupGP

Epoche: Sep 15, 2026, 01:59 UTC

1 59623C 24080Y   26258.08312500 -.00021305  00000+0 -77155-3 0  2589
2 59623  43.0043  48.6964 0001895 272.2002  79.9778 15.27593800    14

Verfolge STARLINK-31763 in Echtzeit mit AllMySat

Download on the App Store